Time,TemperatureF,DewpointF,PressureIn,WindDirection,WindDirectionDegrees,WindSpeedMPH,WindSpeedGustMPH,Humidity,HourlyPrecipIn,Conditions,Clouds,dailyrainin,SolarRadiationWatts/m^2,SoftwareType,DateUTC
2013-03-04 00:14:00,31.7,21.0,30.06,NNW,329,0.0,0.0,66,0.00,,,0.00,0,weatherlink.com 1.10,2013-03-04 05:14:00,
2013-03-04 00:29:00,31.3,21.0,30.06,NNW,329,0.0,1.0,66,0.00,,,0.00,0,weatherlink.com 1.10,2013-03-04 05:29:00,
2013-03-04 00:44:00,31.0,21.0,30.06,NNW,329,0.0,0.0,66,0.00,,,0.00,0,weatherlink.com 1.10,2013-03-04 05:44:00,
2013-03-04 00:59:00,30.6,21.0,30.07,NNW,329,0.0,0.0,68,0.00,,,0.00,0,weatherlink.com 1.10,2013-03-04 05:59:00,
2013-03-04 01:14:00,30.1,21.0,30.07,NNW,328,0.0,1.0,68,0.00,,,0.00,0,weatherlink.com 1.10,2013-03-04 06:14:00,
2013-03-04 01:29:00,29.6,21.0,30.07,NNW,328,0.0,0.0,69,0.00,,,0.00,0,weatherlink.com 1.10,2013-03-04 06:29:00,
2013-03-04 01:44:00,29.1,20.0,30.08,NNW,328,0.0,0.0,69,0.00,,,0.00,0,weatherlink.com 1.10,2013-03-04 06:44:00,
2013-03-04 01:59:00,28.7,20.0,30.09,NNW,328,0.0,0.0,71,0.00,,,0.00,0,weatherlink.com 1.10,2013-03-04 06:59:00,
2013-03-04 02:14:00,28.3,20.0,30.09,NNW,328,0.0,0.0,72,0.00,,,0.00,0,weatherlink.com 1.10,2013-03-04 07:14:00,
2013-03-04 02:29:00,27.9,20.0,30.09,NNW,328,0.0,0.0,72,0.00,,,0.00,0,weatherlink.com 1.10,2013-03-04 07:29:00,
2013-03-04 02:44:00,27.6,20.0,30.09,NNW,332,0.0,0.0,73,0.00,,,0.00,0,weatherlink.com 1.10,2013-03-04 07:44:00,
2013-03-04 02:59:00,27.3,20.0,30.10,NNW,332,0.0,0.0,73,0.00,,,0.00,0,weatherlink.com 1.10,2013-03-04 07:59:00,
2013-03-04 03:14:00,26.9,20.0,30.10,NNW,332,0.0,0.0,74,0.00,,,0.00,0,weatherlink.com 1.10,2013-03-04 08:14:00,
2013-03-04 03:30:00,26.6,19.0,30.11,NNW,332,0.0,0.0,74,0.00,,,0.00,0,weatherlink.com 1.10,2013-03-04 08:30:00,
2013-03-04 03:45:00,26.3,19.0,30.11,NNW,332,0.0,0.0,75,0.00,,,0.00,0,weatherlink.com 1.10,2013-03-04 08:45:00,
2013-03-04 04:00:00,26.1,19.0,30.12,NNW,332,0.0,0.0,75,0.00,,,0.00,0,weatherlink.com 1.10,2013-03-04 09:00:00,
2013-03-04 04:15:00,25.8,19.0,30.12,NNW,332,0.0,0.0,76,0.00,,,0.00,0,weatherlink.com 1.10,2013-03-04 09:15:00,
2013-03-04 04:30:00,25.5,19.0,30.12,NNW,332,0.0,0.0,76,0.00,,,0.00,0,weatherlink.com 1.10,2013-03-04 09:30:00,
2013-03-04 04:45:00,25.3,19.0,30.14,NNW,332,0.0,0.0,77,0.00,,,0.00,0,weatherlink.com 1.10,2013-03-04 09:45:00,
2013-03-04 05:00:00,25.1,19.0,30.14,NNW,332,0.0,0.0,77,0.00,,,0.00,0,weatherlink.com 1.10,2013-03-04 10:00:00,
2013-03-04 05:15:00,24.9,19.0,30.15,NNW,332,0.0,0.0,78,0.00,,,0.00,0,weatherlink.com 1.10,2013-03-04 10:15:00,
2013-03-04 05:30:00,24.8,19.0,30.16,NNW,332,0.0,0.0,79,0.00,,,0.00,0,weatherlink.com 1.10,2013-03-04 10:30:00,
2013-03-04 05:45:00,24.7,19.0,30.16,NNW,332,0.0,0.0,78,0.00,,,0.00,0,weatherlink.com 1.10,2013-03-04 10:45:00,
2013-03-04 06:00:00,24.6,19.0,30.16,NNW,332,0.0,0.0,79,0.00,,,0.00,0,weatherlink.com 1.10,2013-03-04 11:00:00,
2013-03-04 06:15:00,24.4,19.0,30.17,NNW,332,0.0,0.0,79,0.00,,,0.00,0,weatherlink.com 1.10,2013-03-04 11:15:00,
2013-03-04 06:30:00,24.3,19.0,30.17,NNW,332,0.0,0.0,80,0.00,,,0.00,0,weatherlink.com 1.10,2013-03-04 11:30:00,
2013-03-04 06:45:00,24.2,19.0,30.17,NNW,332,0.0,0.0,80,0.00,,,0.00,0,weatherlink.com 1.10,2013-03-04 11:45:00,
2013-03-04 07:00:00,24.1,19.0,30.17,NNW,332,0.0,0.0,81,0.00,,,0.00,5,weatherlink.com 1.10,2013-03-04 12:00:00,
2013-03-04 07:15:00,24.0,19.0,30.17,NNW,332,0.0,0.0,81,0.00,,,0.00,11,weatherlink.com 1.10,2013-03-04 12:15:00,
2013-03-04 07:30:00,24.0,19.0,30.18,NNW,332,0.0,0.0,82,0.00,,,0.00,18,weatherlink.com 1.10,2013-03-04 12:30:00,
2013-03-04 07:45:00,23.9,19.0,30.19,NNW,332,0.0,0.0,82,0.00,,,0.00,21,weatherlink.com 1.10,2013-03-04 12:45:00,
2013-03-04 08:00:00,24.7,20.0,30.19,WNW,303,0.0,2.0,83,0.00,,,0.00,26,weatherlink.com 1.10,2013-03-04 13:00:00,
2013-03-04 08:15:00,26.3,22.0,30.20,NNE,17,0.0,2.0,82,0.00,,,0.00,33,weatherlink.com 1.10,2013-03-04 13:15:00,
2013-03-04 08:30:00,28.0,22.0,30.20,NNE,22,0.0,4.0,78,0.00,,,0.00,100,weatherlink.com 1.10,2013-03-04 13:30:00,
2013-03-04 08:45:00,30.2,23.0,30.22,NNE,19,0.0,2.0,74,0.00,,,0.00,72,weatherlink.com 1.10,2013-03-04 13:45:00,
2013-03-04 09:00:00,33.9,23.0,30.22,NNE,13,0.0,4.0,65,0.00,,,0.00,62,weatherlink.com 1.10,2013-03-04 14:00:00,
2013-03-04 09:15:00,35.8,23.0,30.22,NNE,17,0.0,5.0,60,0.00,,,0.00,436,weatherlink.com 1.10,2013-03-04 14:15:00,
2013-03-04 09:30:00,38.6,23.0,30.22,North,10,1.0,4.0,54,0.00,,,0.00,483,weatherlink.com 1.10,2013-03-04 14:30:00,
2013-03-04 09:45:00,40.2,23.0,30.22,NW,323,0.0,5.0,50,0.00,,,0.00,526,weatherlink.com 1.10,2013-03-04 14:45:00,
2013-03-04 10:00:00,40.8,23.0,30.22,NNE,13,4.0,7.0,49,0.00,,,0.00,564,weatherlink.com 1.10,2013-03-04 15:00:00,
2013-03-04 10:16:00,41.9,23.0,30.21,NNE,21,0.0,4.0,47,0.00,,,0.00,606,weatherlink.com 1.10,2013-03-04 15:16:00,
2013-03-04 10:31:00,43.2,24.0,30.21,NNW,330,0.0,7.0,47,0.00,,,0.00,638,weatherlink.com 1.10,2013-03-04 15:31:00,
2013-03-04 10:46:00,43.4,23.0,30.20,NNW,335,0.0,6.0,44,0.00,,,0.00,598,weatherlink.com 1.10,2013-03-04 15:46:00,
2013-03-04 11:01:00,44.4,23.0,30.20,North,355,3.0,8.0,43,0.00,,,0.00,51,weatherlink.com 1.10,2013-03-04 16:01:00,
2013-03-04 11:16:00,44.7,23.0,30.21,WNW,292,0.0,8.0,43,0.00,,,0.00,167,weatherlink.com 1.10,2013-03-04 16:16:00,
2013-03-04 11:31:00,46.1,22.0,30.19,NE,34,0.0,6.0,39,0.00,,,0.00,93,weatherlink.com 1.10,2013-03-04 16:31:00,
2013-03-04 11:46:00,46.9,22.0,30.18,NNW,338,0.0,6.0,38,0.00,,,0.00,571,weatherlink.com 1.10,2013-03-04 16:46:00,
2013-03-04 12:01:00,47.8,23.0,30.18,NNW,346,0.0,6.0,38,0.00,,,0.00,765,weatherlink.com 1.10,2013-03-04 17:01:00,
2013-03-04 12:16:00,49.1,24.0,30.17,WNW,302,2.0,9.0,37,0.00,,,0.00,137,weatherlink.com 1.10,2013-03-04 17:16:00,
2013-03-04 12:31:00,49.0,25.0,30.16,NW,314,0.0,5.0,40,0.00,,,0.00,121,weatherlink.com 1.10,2013-03-04 17:31:00,
2013-03-04 12:46:00,50.3,24.0,30.15,NW,309,0.0,4.0,36,0.00,,,0.00,123,weatherlink.com 1.10,2013-03-04 17:46:00,
2013-03-04 13:01:00,50.9,25.0,30.15,NW,323,0.0,6.0,36,0.00,,,0.00,88,weatherlink.com 1.10,2013-03-04 18:01:00,
2013-03-04 13:16:00,51.7,24.0,30.14,NNW,344,2.0,8.0,34,0.00,,,0.00,130,weatherlink.com 1.10,2013-03-04 18:16:00,
2013-03-04 13:31:00,51.8,25.0,30.13,NNW,329,1.0,8.0,35,0.00,,,0.00,109,weatherlink.com 1.10,2013-03-04 18:31:00,
2013-03-04 13:46:00,52.6,24.0,30.13,NNW,343,2.0,8.0,33,0.00,,,0.00,174,weatherlink.com 1.10,2013-03-04 18:46:00,
2013-03-04 14:01:00,52.9,24.0,30.13,NW,321,0.0,10.0,33,0.00,,,0.00,155,weatherlink.com 1.10,2013-03-04 19:01:00,
2013-03-04 14:16:00,54.4,25.0,30.13,NW,305,0.0,4.0,32,0.00,,,0.00,285,weatherlink.com 1.10,2013-03-04 19:16:00,
2013-03-04 14:31:00,53.9,24.0,30.12,SW,236,0.0,6.0,32,0.00,,,0.00,348,weatherlink.com 1.10,2013-03-04 19:31:00,
2013-03-04 14:46:00,55.3,25.0,30.12,NNE,20,0.0,7.0,31,0.00,,,0.00,299,weatherlink.com 1.10,2013-03-04 19:46:00,
2013-03-04 15:01:00,55.5,24.0,30.11,NNW,327,2.0,7.0,30,0.00,,,0.00,538,weatherlink.com 1.10,2013-03-04 20:01:00,
2013-03-04 15:16:00,55.9,24.0,30.11,SW,220,0.0,3.0,29,0.00,,,0.00,564,weatherlink.com 1.10,2013-03-04 20:16:00,
2013-03-04 15:31:00,56.3,23.0,30.11,NW,317,3.0,8.0,28,0.00,,,0.00,519,weatherlink.com 1.10,2013-03-04 20:31:00,
2013-03-04 15:46:00,57.1,25.0,30.10,NW,325,0.0,1.0,29,0.00,,,0.00,471,weatherlink.com 1.10,2013-03-04 20:46:00,
2013-03-04 16:01:00,56.7,25.0,30.09,North,5,4.0,6.0,29,0.00,,,0.00,56,weatherlink.com 1.10,2013-03-04 21:01:00,
2013-03-04 16:16:00,55.8,24.0,30.09,NNE,17,0.0,4.0,29,0.00,,,0.00,95,weatherlink.com 1.10,2013-03-04 21:16:00,
2013-03-04 16:31:00,55.9,25.0,30.09,NNE,26,0.0,5.0,30,0.00,,,0.00,199,weatherlink.com 1.10,2013-03-04 21:31:00,
2013-03-04 16:46:00,56.0,25.0,30.09,NNE,25,0.0,6.0,30,0.00,,,0.00,98,weatherlink.com 1.10,2013-03-04 21:46:00,
2013-03-04 17:01:00,56.3,25.0,30.09,NW,315,0.0,3.0,30,0.00,,,0.00,42,weatherlink.com 1.10,2013-03-04 22:01:00,
2013-03-04 17:16:00,56.1,25.0,30.09,West,263,0.0,4.0,30,0.00,,,0.00,74,weatherlink.com 1.10,2013-03-04 22:16:00,
2013-03-04 17:31:00,55.9,25.0,30.09,West,265,0.0,0.0,31,0.00,,,0.00,30,weatherlink.com 1.10,2013-03-04 22:31:00,
2013-03-04 17:46:00,55.4,26.0,30.09,West,277,0.0,1.0,32,0.00,,,0.00,21,weatherlink.com 1.10,2013-03-04 22:46:00,
2013-03-04 18:01:00,53.9,29.0,30.10,West,277,0.0,0.0,38,0.00,,,0.00,14,weatherlink.com 1.10,2013-03-04 23:01:00,
2013-03-04 18:16:00,51.9,29.0,30.10,West,277,0.0,0.0,41,0.00,,,0.00,5,weatherlink.com 1.10,2013-03-04 23:16:00,
2013-03-04 18:31:00,50.4,29.0,30.10,West,277,0.0,0.0,44,0.00,,,0.00,0,weatherlink.com 1.10,2013-03-04 23:31:00,
2013-03-04 18:46:00,49.0,30.0,30.11,West,277,0.0,0.0,48,0.00,,,0.00,0,weatherlink.com 1.10,2013-03-04 23:46:00,
2013-03-04 19:01:00,48.3,29.0,30.11,West,276,0.0,1.0,47,0.00,,,0.00,0,weatherlink.com 1.10,2013-03-05 00:01:00,
2013-03-04 19:16:00,48.9,29.0,30.11,West,272,2.0,2.0,46,0.00,,,0.00,0,weatherlink.com 1.10,2013-03-05 00:16:00,
2013-03-04 19:31:00,48.5,29.0,30.11,West,272,0.0,1.0,47,0.00,,,0.00,0,weatherlink.com 1.10,2013-03-05 00:31:00,
2013-03-04 19:46:00,47.4,27.0,30.12,West,272,0.0,1.0,46,0.00,,,0.00,0,weatherlink.com 1.10,2013-03-05 00:46:00,
2013-03-04 20:01:00,47.2,28.0,30.12,West,272,0.0,1.0,48,0.00,,,0.00,0,weatherlink.com 1.10,2013-03-05 01:01:00,
2013-03-04 20:17:00,48.1,28.0,30.11,West,272,0.0,3.0,45,0.00,,,0.00,0,weatherlink.com 1.10,2013-03-05 01:17:00,
2013-03-04 20:32:00,48.6,27.0,30.11,West,272,0.0,2.0,44,0.00,,,0.00,0,weatherlink.com 1.10,2013-03-05 01:32:00,
2013-03-04 20:47:00,47.3,29.0,30.11,West,272,0.0,1.0,49,0.00,,,0.00,0,weatherlink.com 1.10,2013-03-05 01:47:00,
2013-03-04 21:02:00,46.3,29.0,30.11,West,272,0.0,1.0,51,0.00,,,0.00,0,weatherlink.com 1.10,2013-03-05 02:02:00,
2013-03-04 21:17:00,47.4,28.0,30.11,West,272,0.0,3.0,48,0.00,,,0.00,0,weatherlink.com 1.10,2013-03-05 02:17:00,
2013-03-04 21:32:00,46.0,30.0,30.12,West,272,0.0,0.0,54,0.00,,,0.00,0,weatherlink.com 1.10,2013-03-05 02:32:00,
2013-03-04 21:47:00,45.0,30.0,30.11,West,272,0.0,0.0,55,0.00,,,0.00,0,weatherlink.com 1.10,2013-03-05 02:47:00,
2013-03-04 22:02:00,47.0,30.0,30.11,West,269,0.0,3.0,53,0.00,,,0.00,0,weatherlink.com 1.10,2013-03-05 03:02:00,
2013-03-04 22:17:00,47.6,31.0,30.11,WSW,253,2.0,3.0,52,0.00,,,0.00,0,weatherlink.com 1.10,2013-03-05 03:17:00,
2013-03-04 22:32:00,47.7,31.0,30.11,WSW,252,1.0,2.0,53,0.00,,,0.00,0,weatherlink.com 1.10,2013-03-05 03:32:00,
2013-03-04 22:47:00,47.6,31.0,30.09,WSW,252,0.0,1.0,53,0.00,,,0.00,0,weatherlink.com 1.10,2013-03-05 03:47:00,
2013-03-04 23:02:00,47.7,32.0,30.10,WSW,252,0.0,1.0,54,0.00,,,0.00,0,weatherlink.com 1.10,2013-03-05 04:02:00,
2013-03-04 23:17:00,47.0,32.0,30.10,WSW,252,0.0,1.0,56,0.00,,,0.00,0,weatherlink.com 1.10,2013-03-05 04:17:00,
2013-03-04 23:32:00,46.4,33.0,30.11,WSW,252,0.0,0.0,59,0.00,,,0.00,0,weatherlink.com 1.10,2013-03-05 04:32:00,
2013-03-04 23:47:00,44.6,33.0,30.11,WSW,252,0.0,0.0,64,0.00,,,0.00,0,weatherlink.com 1.10,2013-03-05 04:47:00,